{"data":{"norad_id":68730,"epoch":"2026-05-25T05:01:53.808384Z","epoch_age_seconds":57222,"freshness":"FRESH","line1":"1 68730U 26082C   26145.20965056 -.00515751  00000+0 -73062-2 0  9998","line2":"2 68730  97.2848   8.9890 0005128  52.6797 307.4926 15.58112686  6178","mean_motion":15.58112686,"eccentricity":0.0005128,"inclination_deg":97.2848,"raan_deg":8.989,"arg_perigee_deg":52.6797,"mean_anomaly_deg":307.4926,"bstar":-0.0073062,"rev_number":617,"period_min":92.419502962702,"perigee_km":389.64720153407,"apogee_km":396.59180220239,"semimajor_km":6771.2565018682,"source":"CELESTRAK","updated_at":"2026-05-25T13:38:22.004658Z"}}